WetterOnline ( https://www.wetteronline.at )

Wetter aktuell Schenefeld

Aktuelles Wetter: Quickborn (17m)

6-stündlich | Neueste Meldungen
Ortszeit Temperatur Wetter
Fr, 23.08. 8:00 13.0° C leicht bewölkt
Fr, 23.08. 2:00 9.8° C Nebel
Do, 22.08. 20:00 21.3° C leicht bewölkt
Do, 22.08. 14:00 24.2° C fast wolkenlos
Do, 22.08. 8:00 12.5° C fast wolkenlos
Do, 22.08. 2:00 8.6° C wolkenlos
Mi, 21.08. 20:00 17.4° C wolkig
Mi, 21.08. 14:00 18.8° C leicht bewölkt
Ortszeit Temperatur Wetter
Fr, 23.08. 8:00 13.0° C leicht bewölkt
Fr, 23.08. 7:50 13.0° C wolkig
Fr, 23.08. 7:40 11.9° C leicht bewölkt
Fr, 23.08. 7:30 10.5° C leicht bewölkt
Fr, 23.08. 7:20 10.5° C leicht bewölkt
Fr, 23.08. 7:10 9.9° C leicht bewölkt
Fr, 23.08. 7:00 8.5° C Nebel
Fr, 23.08. 6:30 8.1° C Nebel
Fr, 23.08. 6:00 8.0° C Nebel
Fr, 23.08. 5:30 8.4° C Nebel
Fr, 23.08. 5:00 8.7° C Nebel
Ortszeit Relative Feuchte Sichtweite
Fr, 23.08. 8:00 95% 5.0 km
Fr, 23.08. 2:00 98% 0.2 km
Do, 22.08. 20:00 59% 45 km
Do, 22.08. 14:00 36% 60 km
Do, 22.08. 8:00 81% 35 km
Do, 22.08. 2:00 99% 7 km
Mi, 21.08. 20:00 80% 45 km
Mi, 21.08. 14:00 59% 50 km
Ortszeit Relative Feuchte Sichtweite
Fr, 23.08. 8:00 95% 5.0 km
Fr, 23.08. 7:50 95% -
Fr, 23.08. 7:40 97% -
Fr, 23.08. 7:30 97% 5.0 km
Fr, 23.08. 7:20 97% -
Fr, 23.08. 7:10 95% -
Fr, 23.08. 7:00 97% 0.8 km
Fr, 23.08. 6:30 99% 0.2 km
Fr, 23.08. 6:00 99% 0.3 km
Fr, 23.08. 5:30 99% 0.2 km
Fr, 23.08. 5:00 98% 0.2 km
Ortszeit Niederschlagsmenge Niederschlagsart
Fr, 23.08. 8:00 0.0 l/m2 in 12 Std. -
Fr, 23.08. 2:00 0.0 l/m2 in 6 Std. -
Do, 22.08. 20:00 0.0 l/m2 in 12 Std. -
Do, 22.08. 14:00 0.0 l/m2 in 6 Std. -
Do, 22.08. 8:00 0.0 l/m2 in 12 Std. -
Do, 22.08. 2:00 0.0 l/m2 in 6 Std. -
Mi, 21.08. 20:00 0.0 l/m2 in 12 Std. -
Mi, 21.08. 14:00 0.0 l/m2 in 6 Std. -
Ortszeit Niederschlagsmenge Niederschlagsart
Fr, 23.08. 8:00 0.0 l/m2 in 1 Std. -
Fr, 23.08. 7:50 keine Meldung -
Fr, 23.08. 7:40 keine Meldung -
Fr, 23.08. 7:30 0.0 l/m2 in 1 Std. -
Fr, 23.08. 7:20 keine Meldung -
Fr, 23.08. 7:10 keine Meldung -
Fr, 23.08. 7:00 0.0 l/m2 in 1 Std. -
Fr, 23.08. 6:30 0.0 l/m2 in 1 Std. -
Fr, 23.08. 6:00 0.0 l/m2 in 1 Std. -
Fr, 23.08. 5:30 0.0 l/m2 in 1 Std. -
Fr, 23.08. 5:00 0.0 l/m2 in 1 Std. -
Ortszeit Stärke Spitze Richtung
km/h Bft. km/h Grad Sektor
Fr, 23.08. 8:00 4 1 4 180° S
Fr, 23.08. 2:00 0 0 18 - -
Do, 22.08. 20:00 6 1 26 220° SW
Do, 22.08. 14:00 13 3 28 220° SW
Do, 22.08. 8:00 6 1 9 160° S
Do, 22.08. 2:00 0 0 4 - -
Mi, 21.08. 20:00 2 1 28 320° NW
Mi, 21.08. 14:00 14 3 29 290° W
Ortszeit Stärke Spitze Richtung
km/h Bft. km/h Grad Sektor
Fr, 23.08. 8:00 4 1 4 180° S
Fr, 23.08. 7:50 4 1 - 180° S
Fr, 23.08. 7:40 4 1 - 170° S
Fr, 23.08. 7:30 4 1 4 150° SO
Fr, 23.08. 7:20 4 1 - 150° SO
Fr, 23.08. 7:10 0 0 - 110° O
Fr, 23.08. 7:00 0 0 4 - -
Fr, 23.08. 6:30 4 1 4 140° SO
Fr, 23.08. 6:00 0 0 4 - -
Fr, 23.08. 5:30 0 0 4 - -
Fr, 23.08. 5:00 4 1 4 160° S
Ortszeit Untergrenze Bedeckung Gattung
total tief tief mittel hoch
Fr, 23.08. 8:00 10500 m 7/8 0/8 - - -
Fr, 23.08. 2:00 10500 m 7/8 0/8 - - -
Do, 22.08. 20:00 9000 m 4/8 0/8 - - -
Do, 22.08. 14:00 10500 m 2/8 0/8 - - -
Do, 22.08. 8:00 10500 m 1/8 0/8 - - -
Do, 22.08. 2:00 9000 m 0/8 0/8 - - -
Mi, 21.08. 20:00 9000 m 8/8 0/8 - - -
Mi, 21.08. 14:00 1170 m 3/8 6/8 - - -
Ortszeit Bedeckungsgrad in Achtel und Wolkenuntergrenze
Fr, 23.08. 8:00 7(10500m)
Fr, 23.08. 7:50 7(10500m)
Fr, 23.08. 7:40 5(10500m) 5(10500m)
Fr, 23.08. 7:30 1(10500m) 4(10500m)
Fr, 23.08. 7:20 1(10500m) 4(10500m)
Fr, 23.08. 7:10 1(10500m) 4(10500m)
Fr, 23.08. 7:00 4(10500m)
Fr, 23.08. 6:30 7(10500m)
Fr, 23.08. 6:00 4(10500m)
Fr, 23.08. 5:30 1(10500m)
Fr, 23.08. 5:00 keine Wolken
Ortszeit Luftdruck NN (hPa) Tendenz (hPa in 3 Std.)
Fr, 23.08. 8:00 1026 + 0,4
Fr, 23.08. 2:00 1026 + 0,4
Do, 22.08. 20:00 1024 - 0,4
Do, 22.08. 14:00 1025 - 1,2
Do, 22.08. 8:00 1027 - 0,8
Do, 22.08. 2:00 1028 - 0,4
Mi, 21.08. 20:00 1028 - 0,1
Mi, 21.08. 14:00 1028 - 0,2
Ortszeit Luftdruck NN (hPa) Tendenz (hPa in 3 Std.)
Fr, 23.08. 8:00 1026 + 0,4
Fr, 23.08. 7:50 1026 keine Meldung
Fr, 23.08. 7:40 1026 keine Meldung
Fr, 23.08. 7:30 1026 + 0,1
Fr, 23.08. 7:20 1026 keine Meldung
Fr, 23.08. 7:10 1026 keine Meldung
Fr, 23.08. 7:00 1026 + 0,2
Fr, 23.08. 6:30 1026 0,0
Fr, 23.08. 6:00 1026 - 0,1
Fr, 23.08. 5:30 1026 - 0,1
Fr, 23.08. 5:00 1026 - 0,1
Ortszeit Schneehöhe (cm)
Fr, 23.08. 8:00 -
Fr, 23.08. 2:00 -
Do, 22.08. 20:00 -
Do, 22.08. 14:00 -
Do, 22.08. 8:00 -
Do, 22.08. 2:00 -
Mi, 21.08. 20:00 -
Mi, 21.08. 14:00 -
Ortszeit Schneehöhe (cm)
Fr, 23.08. 8:00 -
Fr, 23.08. 7:50 -
Fr, 23.08. 7:40 -
Fr, 23.08. 7:30 -
Fr, 23.08. 7:20 -
Fr, 23.08. 7:10 -
Fr, 23.08. 7:00 -
Fr, 23.08. 6:30 -
Fr, 23.08. 6:00 -
Fr, 23.08. 5:30 -
Fr, 23.08. 5:00 -
Link zu dieser Seite / Seite empfehlen

Das Wetter in ...